PUA1497 SYEC-SOCA

Flight info

Callsign PUA1497
Flight time N/A
Altitude 9000
Route SISEX G443 GEDAX
Aircraft PA44/L-SDGRY/S

Departure

Time N/A
Airport Eugene F. Correia International Airport (SYEC)

Arrival

Time 2026-04-19 10:52
Airport Cayenne – Félix Eboué Airport (SOCA)
Time Latitude Longitude Altitude Speed Heading
2026-04-19 10:48 4.79898 -52.39976 1516 ft 112 kts 68°
2026-04-19 10:48 4.80110 -52.39290 1843 ft 95 kts 78°
2026-04-19 10:48 4.80151 -52.38691 2249 ft 79 kts 85°
2026-04-19 10:49 4.80178 -52.38153 2553 ft 78 kts 90°
2026-04-19 10:49 4.80118 -52.37599 2824 ft 86 kts 95°
2026-04-19 10:49 4.79999 -52.36963 3042 ft 88 kts 102°
2026-04-19 10:49 4.80007 -52.36335 2676 ft 100 kts 66°
2026-04-19 10:50 4.80592 -52.35901 2260 ft 112 kts 21°
2026-04-19 10:50 4.81389 -52.36004 1879 ft 121 kts 347°
2026-04-19 10:50 4.82002 -52.36569 1657 ft 122 kts 305°
2026-04-19 10:50 4.82113 -52.37410 1418 ft 123 kts 255°
2026-04-19 10:51 4.81888 -52.38280 1078 ft 132 kts 265°
2026-04-19 10:51 4.81478 -52.39007 800 ft 120 kts 210°
2026-04-19 10:51 4.80731 -52.38972 703 ft 111 kts 134°
2026-04-19 10:51 4.80806 -52.38323 264 ft 104 kts 43°
2026-04-19 10:52 4.81220 -52.37787 104 ft 94 kts 62°
2026-04-19 10:52 4.81474 -52.37241 29 ft 75 kts 63°
2026-04-19 10:52 4.81672 -52.36841 23 ft 55 kts 67°
2026-04-19 10:52 4.81821 -52.36534 23 ft 44 kts 68°
2026-04-19 10:53 4.81938 -52.36282 24 ft 36 kts 65°
2026-04-19 10:53 4.82029 -52.36222 24 ft 15 kts 328°
2026-04-19 10:53 4.82099 -52.36260 24 ft 0 kts 338°